Wind_Speed
15 12 11 11 10 10 8 8 8 9 10 10 6 4 7 13 10 10 7 8 2 11 2 4 2 3 2 1 1 3 1 5 6 7 5 0 1 3 3 2 4 3 3 3 3
18 14 12 13 11 10 9 7 7 7 8 9 7 3 5 6 10 12 17 13 6 3 1 2 2 4 1 2 1 3 3 6 6 5 4 3 2 4 4 6 4 4 3 4 9
18 17 14 14 11 11 10 8 6 6 7 7 7 4 1 1 3 7 13 22 18 9 6 1 2 2 1 0 3 3 6 2 3 4 3 4 4 2 2 5 7 5 8 6 2
18 20 17 13 12 12 10 8 6 4 5 6 5 4 3 3 6 2 4 3 13 18 7 5 2 3 3 4 4 2 5 4 2 4 5 3 5 6 6 8 4 4 5 4 4
21 20 20 17 13 12 12 9 6 4 4 5 4 2 2 0 8 4 2 2 6 18 13 6 3 4 4 3 0 4 3 4 4 7 6 7 11 8 10 10 10 10 6 10 8
22 22 20 21 17 12 13 10 8 6 5 4 3 2 1 3 5 7 5 6 7 16 13 8 6 5 3 3 3 1 2 5 6 6 5 7 12 4 7 6 9 9 10 10 9
23 24 22 23 19 15 14 13 9 7 5 4 3 2 1 11 2 1 4 1 5 9 4 8 5 3 3 3 1 2 4 6 6 6 7 5 16 18 13 11 12 10 9 10 10
29 22 24 23 22 17 15 14 11 9 6 4 3 2 6 5 5 11 5 2 2 5 4 5 9 4 2 4 3 3 2 3 5 4 6 10 17 8 5 13 15 15 10 10 13
28 28 23 23 23 20 16 14 12 10 6 4 3 3 7 4 4 7 10 3 2 6 3 0 5 4 3 3 3 5 5 5 6 3 5 10 4 3 4 4 8 9 9 10 11
28 27 23 23 23 22 17 14 8 8 5 3 3 2 4 2 2 3 9 10 3 5 3 3 3 3 3 4 5 4 4 3 8 3 5 10 16 14 9 11 12 9 9 9 10
28 26 27 22 22 25 21 13 4 2 5 7 4 3 1 2 2 3 6 9 3 4 5 2 5 7 10 7 3 1 5 11 6 8 8 13 18 17 11 10 12 14 14 10 10
26 26 25 19 20 30 30 4 8 5 3 13 7 7 6 4 1 2 12 5 4 5 4 1 10 7 5 5 7 8 10 13 13 13 11 12 24 18 16 18 16 14 16 12 10
23 22 21 17 23 36 32 16 17 8 1 4 6 7 3 5 4 4 8 4 3 5 6 7 3 7 10 5 7 9 10 8 12 8 13 14 28 19 21 23 22 20 20 17 13
19 22 24 20 16 31 18 20 17 10 4 4 4 5 6 5 5 10 15 5 3 9 5 9 11 7 5 6 8 14 8 13 13 6 7 3 10 8 9 16 12 17 15 15 13
23 26 28 24 8 17 21 25 17 7 2 3 5 1 7 9 2 2 6 4 7 8 6 6 5 7 15 16 7 5 6 9 10 8 8 9 6 5 5 8 8 9 11 13 14
29 35 29 23 12 28 38 29 11 6 6 6 4 5 6 4 2 3 5 3 2 10 12 11 4 4 6 8 11 3 5 4 3 7 10 13 10 15 8 13 8 16 14 14 14
52 37 22 17 4 37 47 13 5 4 0 6 5 6 6 6 5 5 6 8 6 4 8 4 15 4 3 4 7 10 2 2 5 6 8 7 11 23 5 8 9 13 12 11 10
20 13 16 20 22 47 28 5 4 6 5 5 5 8 6 6 4 7 4 7 11 5 1 4 5 12 11 14 7 15 11 5 4 4 4 6 8 8 11 19 21 18 11 7 7
2 12 10 21 25 40 13 3 8 7 7 9 11 4 5 6 3 6 8 6 7 15 6 3 4 2 7 8 8 5 10 13 6 4 4 5 8 9 11 9 11 13 14 14 8
5 1 6 15 45 22 9 7 4 4 6 5 5 5 6 7 8 7 6 4 6 12 7 2 6 6 4 8 9 7 1 3 5 4 4 6 7 11 10 11 12 13 10 10 8
3 2 9 25 33 8 7 3 3 4 5 4 4 5 4 6 8 5 5 4 7 5 14 5 4 1 5 10 12 8 5 6 2 4 4 4 6 5 7 3 14 19 13 10 13
2 2 16 40 7 4 5 6 4 5 2 3 3 4 5 7 7 6 7 5 5 8 10 9 3 6 14 5 14 14 10 15 6 5 4 4 13 5 2 7 14 19 10 5 8
1 2 26 35 4 6 5 4 3 4 3 3 3 2 4 6 4 8 4 6 9 10 11 10 5 4 4 1 6 10 16 18 15 1 10 5 8 9 2 12 11 11 6 5 7
1 3 4 5 2 9 9 5 4 4 5 3 2 5 4 5 8 3 3 5 13 10 9 12 4 9 12 13 4 7 16 17 16 9 19 21 15 19 13 12 11 12 2 3 6
2 3 2 5 4 8 4 9 6 5 3 7 5 9 6 5 5 6 6 8 5 10 8 8 8 13 22 22 13 11 13 15 19 22 11 16 21 16 6 8 7 11 5 6 10
3 3 2 6 11 6 5 6 11 6 8 5 7 7 9 5 7 6 6 6 6 3 8 4 6 7 19 18 18 16 15 17 24 21 21 22 24 5 4 7 11 15 8 10 9
7 3 3 8 9 7 6 6 9 6 7 5 11 9 8 13 16 15 6 6 3 3 8 4 3 3 8 6 5 3 16 19 16 21 19 18 23 13 17 12 15 11 9 9 9
Wind_Direction
262 271 294 280 278 282 287 296 298 301 302 299 303 274 269 246 236 220 234 227 220 233 298 331 20 20 99 68 132 140 109 226 221 170 234 336 344 325 302 319 326 288 186 290 146
253 258 290 286 268 274 279 282 293 297 298 297 285 298 268 268 249 233 241 251 228 205 338 28 49 5 63 152 197 161 194 231 193 197 254 281 345 5 344 345 318 319 282 326 183
269 256 245 285 263 257 268 273 279 289 295 297 288 271 260 222 299 249 257 246 242 237 234 130 96 76 197 136 200 179 234 256 269 276 277 270 289 224 258 279 229 270 311 340 189
273 253 246 248 256 248 255 261 261 275 288 293 290 285 218 214 235 5 3 300 223 216 181 132 89 120 169 211 213 210 242 221 286 331 322 275 327 307 241 241 235 277 283 296 289
273 263 249 239 240 234 242 243 247 250 271 282 287 269 151 238 250 274 7 37 217 205 184 142 142 150 197 210 239 210 236 264 295 309 281 279 267 256 254 267 282 288 278 270 262
280 270 262 237 234 230 229 239 231 231 245 265 266 232 129 248 282 252 233 55 134 179 188 151 183 194 227 234 177 233 262 256 268 256 270 266 268 242 238 234 272 266 270 265 247
325 272 259 243 235 222 222 225 221 214 229 241 253 203 236 246 221 215 192 175 101 170 147 200 171 166 169 236 240 255 303 297 225 222 248 250 264 241 254 226 241 251 256 265 259
321 309 261 245 233 221 211 215 215 202 205 215 216 181 247 243 280 227 232 211 216 160 109 134 202 188 242 338 329 264 176 311 313 244 245 174 258 309 270 221 225 243 235 247 257
316 313 272 249 231 217 209 207 211 202 189 195 205 167 260 300 234 245 216 168 187 194 193 87 149 178 170 164 290 202 247 240 296 282 259 209 298 232 348 285 253 248 244 238 252
315 317 308 246 231 212 197 185 184 163 166 194 251 267 259 259 190 160 179 167 127 121 102 178 195 196 159 178 226 223 226 241 249 261 352 289 276 281 287 296 277 263 253 245 243
312 314 309 250 236 206 168 141 130 194 212 197 203 223 306 312 153 107 157 127 87 89 175 198 207 210 203 212 284 38 272 270 275 300 309 276 276 277 276 265 266 272 272 252 245
308 313 306 257 243 197 174 187 159 149 212 233 239 253 255 14 1 114 153 131 136 178 129 38 242 229 204 211 237 254 270 273 280 261 261 281 278 279 264 260 253 249 261 255 253
303 316 310 279 258 174 176 177 148 131 66 267 209 227 189 175 240 205 161 132 151 154 193 209 191 217 197 196 226 237 241 260 259 299 278 294 285 268 257 244 247 240 238 247 239
301 313 303 294 283 164 171 155 141 119 58 247 204 240 163 155 267 198 178 145 169 196 188 250 247 234 193 208 190 257 200 238 255 251 258 142 288 259 282 282 243 246 237 235 224
289 306 307 305 286 164 154 155 147 77 21 158 146 120 160 165 133 59 178 194 190 184 166 223 181 214 228 230 170 252 181 212 230 239 269 237 277 288 236 268 261 248 232 225 216
284 298 295 297 258 159 156 153 130 59 249 172 125 166 153 192 149 121 178 234 23 230 227 240 188 201 212 230 198 166 231 252 247 234 247 225 203 271 240 240 234 239 236 226 225
288 281 257 240 314 153 147 148 84 167 129 171 171 164 182 165 205 182 172 193 187 197 225 233 238 208 213 190 193 217 199 237 222 211 247 177 211 245 252 278 253 255 247 235 227
286 231 217 219 281 149 151 91 128 178 184 127 134 144 172 169 232 192 193 223 218 216 274 232 287 209 186 212 188 198 197 221 239 230 258 221 241 250 225 241 253 251 246 265 217
133 172 191 213 210 158 152 164 187 192 157 146 144 141 189 188 201 188 224 235 223 194 208 222 260 295 200 210 186 177 212 222 266 230 247 242 280 289 252 253 256 250 235 232 202
142 136 163 238 162 183 150 173 154 144 121 132 136 185 160 167 179 185 200 220 221 205 173 264 271 201 199 202 249 200 299 169 205 237 243 254 270 245 316 321 316 272 245 234 189
96 108 185 171 160 179 179 162 147 145 111 140 165 152 182 159 182 189 238 256 193 174 177 199 227 340 152 212 192 197 196 213 240 198 214 274 264 211 166 257 353 329 277 226 187
136 115 167 151 155 197 166 151 131 132 103 98 101 100 165 158 188 213 230 234 153 153 182 199 255 241 237 211 211 216 226 212 208 207 227 178 258 189 126 36 2 343 315 265 185
224 166 159 153 176 167 155 101 105 126 142 115 118 190 179 168 212 212 212 248 164 178 180 165 218 280 284 301 203 219 220 222 232 156 227 210 258 210 267 346 0 348 356 48 75
114 42 105 192 262 147 155 150 107 100 127 139 137 160 164 207 225 271 243 278 180 201 184 174 223 218 250 247 195 213 218 211 206 226 243 237 273 269 312 334 337 0 262 137 121
56 167 203 178 196 151 126 157 159 144 181 184 195 217 191 206 205 234 230 276 194 215 196 179 251 237 253 262 244 234 212 191 209 219 214 259 251 269 319 296 341 335 218 176 163
155 155 165 155 151 140 139 181 179 149 170 195 224 215 215 236 208 212 208 190 236 152 163 197 273 287 284 284 266 227 216 207 217 224 240 251 269 287 192 354 320 292 222 197 169
346 279 122 147 150 156 190 166 187 155 198 194 199 221 231 239 238 250 218 251 263 260 217 206 252 293 286 311 313 149 223 219 217 220 220 231 247 259 283 276 256 252 240 211 171
Height
777 777 777 778 777 776 775 775 776 777 776 775 773 771 771 774 775 776 776 772 772 772 772 773 776 775 775 777 778 780 794 798 791 791 781 768 771 763 760 763 761 757 756 752 752
774 773 774 775 774 774 774 773 774 774 776 774 773 771 770 773 772 770 769 769 770 772 772 775 775 776 779 778 779 783 793 786 778 777 775 771 772 770 768 769 766 761 753 752 752
771 770 770 771 772 773 773 772 772 773 774 773 773 772 770 773 774 766 764 765 768 771 772 775 776 777 781 780 780 781 784 776 774 771 771 773 771 766 768 771 766 765 761 755 753
768 767 767 767 770 771 771 771 771 771 772 773 773 772 771 774 778 763 762 762 763 769 773 775 778 781 784 784 779 784 778 776 772 770 772 772 770 771 767 765 757 758 758 756 756
764 764 764 765 766 768 769 770 770 770 771 773 773 773 773 775 768 763 762 761 761 766 770 773 779 781 783 782 780 782 779 774 772 774 772 770 770 771 765 760 756 755 756 755 754
760 760 760 761 763 764 766 767 769 769 770 772 773 773 774 778 763 762 763 762 762 765 770 772 775 777 780 781 781 777 777 777 773 772 771 771 766 767 755 755 756 755 754 752 752
755 755 756 757 759 760 762 765 767 767 769 772 773 773 773 766 761 762 762 763 764 765 769 771 773 775 777 779 776 775 779 776 773 770 769 764 759 755 749 751 753 752 752 748 746
752 750 751 753 755 757 759 763 765 766 768 771 772 773 770 760 760 761 761 762 764 765 768 769 772 775 776 774 774 776 777 781 770 766 763 763 752 746 738 743 744 744 746 744 740
750 746 744 748 750 753 757 761 763 765 768 769 772 772 768 758 759 758 760 762 763 766 768 770 772 775 776 780 780 774 778 778 774 763 763 764 753 741 740 741 744 743 742 739 737
747 743 739 742 746 749 754 759 762 765 767 769 770 774 761 756 756 756 759 761 763 766 770 772 774 776 779 781 783 774 774 773 772 765 767 766 757 748 744 742 738 738 737 736 734
743 739 736 736 741 745 751 758 766 768 765 761 758 757 755 755 755 757 758 761 764 769 776 774 776 774 773 778 774 778 777 775 769 765 768 762 753 747 745 743 739 733 729 731 729
739 736 731 730 734 737 743 747 748 753 760 756 757 757 755 757 756 756 759 764 768 774 776 780 776 770 772 773 774 775 777 774 769 768 770 762 741 741 738 732 729 728 723 723 723
734 731 729 726 727 727 734 740 744 749 758 753 752 753 755 758 757 756 758 763 768 776 778 777 764 764 770 775 775 774 779 782 779 771 765 763 731 728 715 713 712 712 712 712 715
730 728 727 724 722 717 731 739 743 747 782 756 752 749 751 754 754 750 754 760 767 772 775 772 764 768 771 772 777 777 771 772 774 780 777 762 740 717 715 708 708 704 704 703 704
724 723 721 721 717 712 723 735 741 747 794 750 748 748 748 751 750 752 752 755 759 762 767 759 765 768 768 763 770 767 764 769 770 772 773 762 768 721 713 710 705 702 699 695 692
716 716 717 714 708 706 716 734 739 776 778 744 746 746 748 749 747 751 752 755 758 758 757 754 760 760 760 756 760 761 766 766 765 765 754 743 763 699 708 700 696 687 686 686 684
703 702 710 712 708 703 713 728 753 768 739 742 741 743 742 747 748 748 753 754 756 760 760 755 752 755 755 761 759 763 768 762 760 754 743 736 743 704 694 692 691 685 683 679 677
690 691 697 702 708 701 711 729 753 732 739 731 739 743 747 747 746 746 750 752 748 753 755 760 758 750 751 747 751 755 758 754 744 762 755 732 722 697 686 680 675 674 676 674 676
687 690 694 698 704 702 708 722 724 724 721 727 738 746 748 741 743 745 745 746 737 745 752 750 754 746 741 744 743 753 751 742 746 743 736 727 710 690 680 679 677 670 665 666 673
688 687 685 697 699 705 709 717 715 713 717 722 729 731 735 737 743 745 740 740 736 736 746 750 748 743 741 744 740 743 743 749 747 736 728 728 719 698 683 678 674 669 667 664 667
689 689 689 695 705 708 708 713 713 712 713 721 724 730 726 730 736 742 741 735 736 739 743 744 750 747 742 736 730 736 736 738 737 733 736 728 712 683 680 680 675 667 659 658 660
689 691 687 694 705 707 707 708 707 715 715 718 718 720 726 727 734 739 741 736 732 738 741 736 745 739 732 718 719 721 722 724 726 738 729 733 691 675 676 673 672 668 663 659 658
686 689 689 693 701 704 705 707 708 715 716 718 722 720 720 728 736 733 735 723 730 733 733 733 738 733 724 724 720 720 712 708 710 716 722 725 678 662 667 669 674 673 672 670 669
685 689 688 697 697 696 701 704 713 711 712 715 718 721 727 726 729 728 734 721 724 725 726 726 728 725 713 699 712 706 706 708 712 712 691 685 682 670 674 677 676 675 675 674 674
681 693 694 699 698 694 698 704 709 713 714 716 718 719 722 721 728 728 729 724 720 720 722 726 720 714 702 696 705 696 693 698 700 692 701 678 680 675 678 679 677 676 677 676 675
684 683 690 691 693 696 697 704 704 708 711 714 717 715 719 719 717 719 721 720 713 715 719 721 714 709 694 685 680 680 681 686 688 690 683 677 673 668 674 677 677 675 673 673 674
684 681 682 689 691 699 697 702 698 703 708 705 712 716 716 714 713 709 712 711 711 710 712 716 718 703 680 682 676 666 672 673 678 676 675 686 654 667 666 674 677 670 666 667 670